Regional Weather Roundup
Issued by NWS

Home | Current Version | Previous Version | Graphics & Text | Print | Product List | Glossary On
Versions: 1 2 3 4 5 6 7 8 9 10 11 12 13 14 15 16 17 18 19 20 21 22 23 24 25 26 27 28 29 30 31 32 33 34 35 36 37 38 39 40 41 42 43 44 45 46 47 48 49 50
000
ASUS43 KTOP 211008
RWRKS

WEATHER ROUNDUP FOR KANSAS
NATIONAL WEATHER SERVICE GOODLAND KS
500 AM CDT SUN SEP 21 2014

NOTE:  "FAIR" INDICATES FEW OR NO CLOUDS BELOW 12,000 FEET WITH NO
SIGNIFICANT WEATHER AND/OR OBSTRUCTIONS TO VISIBILITY.

KSZ001>006-013>018-027>032-041>047-211100-
NORTHWEST KANSAS

CITY           SKY/WX    TMP DP  RH WIND       PRES   REMARKS
GOODLAND       CLEAR     51  46  83 N5        30.30R
HAYS           MOCLDY    61  46  59 N5        30.19R
HILL CITY      PTCLDY    55  48  77 CALM      30.21S
RUSSELL        PTCLDY    60  50  69 NE8       30.16S
$$

KSZ061>065-074>080-084>089-211100-
SOUTHWEST KANSAS

CITY           SKY/WX    TMP DP  RH WIND       PRES   REMARKS
DODGE CITY     CLEAR     63  58  83 NE12      30.17R
ELKHART          N/A     64  58  81 N5          N/A
GARDEN CITY    CLEAR     63  51  65 NE15      30.19R
GREAT BEND     PTCLDY    63  52  67 NE8       30.17R
LIBERAL        CLEAR     70  61  73 NE12      30.17R
PRATT          CLEAR     68  63  83 NE15      30.14R
$$

KSZ066>073-081>083-090>101-211100-
SOUTHEAST KANSAS

CITY           SKY/WX    TMP DP  RH WIND       PRES   REMARKS
CHANUTE        PTCLDY    72  68  87 N13       30.06R
HUTCHINSON     CLEAR     68  60  75 NE8       30.13R
MEDICINE LODGE   N/A     71  65  81 N8        30.08R
NEWTON         CLEAR     64  55  72 NE9       30.15R
PARSONS        CLOUDY    74  71  91 W5        30.05S
WICHITA INTL   PTCLDY    73  64  73 N15       30.09R
WICHITA JABRA  CLEAR     69  64  84 N14       30.09R
WICHITA MCCONL PTCLDY    72  69  91 N17G23    30.09R FOG
WINFIELD       LGT RAIN  72  71  97 E3        30.07S
$$

KSZ007>012-019>026-033>040-048>060-102>105-211100-
NORTHEAST KANSAS

CITY           SKY/WX    TMP DP  RH WIND       PRES   REMARKS
CONCORDIA      CLEAR     59  52  77 N8        30.15R
EMPORIA        CLEAR     64  61  90 N8        30.11R
LAWRENCE       CLEAR     57  54  89 CALM      30.10R
MANHATTAN      CLEAR     60  54  80 CALM      30.12R
MARYSVILLE     CLEAR     52  50  93 N5        30.13R
OLATHE IND     CLEAR     60  56  86 CALM      30.10R
OLATHE EXE     CLEAR     64  50  60 NE8       30.08R
SALINA         PTCLDY    63  54  72 NW5       30.15R
TOPEKA BILLARD CLEAR     62  58  86 N3        30.11R
TOPEKA FORBES  CLEAR     58  54  86 CALM      30.11R
$$



USA.gov is the U.S. government's official web portal to all federal, state and local government web resources and services.